FW6490 Weather Reports


time (UTC)temp
C
wind
direction
speed
KPH
gust
KPH
rain 1hr
cm
rain 24hr
cm
rain mn
cm
humidity
%
barometer
mb
20260507232415 18 331 8.0 20.9 0.00 0.00 0.00 73 1010.2
20260507231916 18 325 9.7 22.5 0.00 0.00 0.00 75 1010.2
20260507231411 18 309 8.0 22.5 0.00 0.00 0.00 74 1010.2
20260507230911 18 325 9.7 22.5 0.00 0.00 0.00 73 1010.2
20260507230412 18 333 9.7 22.5 0.00 0.00 0.00 71 1010.2
20260507225408 19 313 8.0 17.7 0.00 0.00 0.00 72 1010.2
20260507224910 19 321 9.7 22.5 0.00 0.00 0.00 72 1010.2
20260507224406 19 338 9.7 22.5 0.00 0.00 0.00 71 1010.2
20260507223906 19 314 9.7 19.3 0.00 0.00 0.00 72 1010.2
20260507222900 19 292 9.7 19.3 0.00 0.00 0.00 72 1010.2
20260507222401 19 318 9.7 20.9 0.00 0.00 0.00 71 1010.2
20260507221356 20 317 9.7 20.9 0.00 0.00 0.00 72 1010.3
20260507215348 19 315 11.3 25.7 0.00 0.00 0.00 72 1010.7
20260507214852 19 314 12.9 22.5 0.00 0.00 0.00 73 1010.7
20260507214352 19 300 11.3 22.5 0.00 0.00 0.00 73 1010.8
20260507213846 19 309 11.3 22.5 0.00 0.00 0.00 72 1010.8
20260507213344 20 300 11.3 22.5 0.00 0.00 0.00 71 1010.8
20260507212343 20 320 11.3 24.1 0.00 0.00 0.00 72 1011.0
20260507211341 20 313 9.7 22.5 0.00 0.00 0.00 70 1011.0
20260507210841 20 337 9.7 22.5 0.00 0.00 0.00 71 1011.0
20260507210335 20 323 11.3 22.5 0.00 0.00 0.00 71 1011.0
20260507205834 20 335 11.3 22.5 0.00 0.00 0.00 71 1011.1
20260507205334 20 286 9.7 22.5 0.00 0.00 0.00 70 1011.1
20260507204831 20 311 9.7 20.9 0.00 0.00 0.00 72 1011.1
20260507202832 19 311 9.7 22.5 0.00 0.00 0.00 72 1011.2
20260507202329 19 308 9.7 22.5 0.00 0.00 0.00 72 1011.2
20260507201325 19 346 9.7 19.3 0.00 0.00 0.00 73 1011.2
20260507200326 19 315 9.7 19.3 0.00 0.00 0.00 73 1011.2
20260507194819 19 311 11.3 19.3 0.00 0.00 0.00 72 1011.2
20260507193817 19 348 9.7 19.3 0.00 0.00 0.00 71 1011.2
20260507193316 20 312 9.7 19.3 0.00 0.00 0.00 71 1011.2
20260507192819 20 300 8.0 19.3 0.00 0.00 0.00 72 1011.2
20260507192317 20 324 8.0 19.3 0.00 0.00 0.00 72 1011.2
20260507191812 20 331 9.7 19.3 0.00 0.00 0.00 72 1011.2
20260507191310 20 355 9.7 19.3 0.00 0.00 0.00 71 1011.2
20260507190808 20 328 8.0 17.7 0.00 0.00 0.00 71 1011.2
20260507190308 20 331 9.7 22.5 0.00 0.00 0.00 74 1011.2
20260507185809 19 11 9.7 22.5 0.00 0.00 0.00 72 1011.3
20260507185305 19 336 9.7 20.9 0.00 0.00 0.00 72 1011.3
20260507184804 20 11 9.7 17.7 0.00 0.00 0.00 71 1011.3
20260507184305 20 318 9.7 17.7 0.00 0.00 0.00 71 1011.3
20260507183801 20 330 9.7 16.1 0.00 0.00 0.00 72 1011.3
20260507183300 20 313 8.0 19.3 0.00 0.00 0.00 71 1011.3
20260507182758 21 326 8.0 19.3 0.00 0.00 0.00 70 1011.3
20260507182307 20 22 8.0 16.1 0.00 0.00 0.00 70 1011.3
20260507181802 21 311 8.0 16.1 0.00 0.00 0.00 69 1011.3
20260507181256 21 317 6.4 14.5 0.00 0.00 0.00 70 1011.3
20260507180754 21 336 4.8 12.9 0.00 0.00 0.00 70 1011.3
20260507180251 21 334 4.8 14.5 0.00 0.00 0.00 70 1011.3
20260507175753 21 338 6.4 14.5 0.00 0.00 0.00 71 1011.3
20260507175250 21 317 6.4 14.5 0.00 0.00 0.00 71 1011.3
20260507174248 21 336 6.4 14.5 0.00 0.00 0.00 72 1011.4
20260507173246 20 327 4.8 12.9 0.00 0.00 0.00 74 1011.4
20260507172750 20 325 4.8 12.9 0.00 0.00 0.00 73 1011.7
20260507172244 20 317 4.8 11.3 0.00 0.00 0.00 75 1011.7
20260507171744 19 329 4.8 11.3 0.00 0.00 0.00 76 1011.7
20260507171241 19 339 4.8 11.3 0.00 0.00 0.00 76 1011.7
20260507170731 18 20 4.8 11.3 0.00 0.00 0.00 79 1011.7
20260507170230 18 11 6.4 11.3 0.00 0.00 0.00 80 1011.7
20260507165724 17 355 6.4 12.9 0.00 0.00 0.00 81 1011.8
20260507165224 17 337 6.4 12.9 0.00 0.00 0.00 81 1011.8
20260507164722 17 12 4.8 12.9 0.00 0.00 0.00 84 1011.8
20260507164222 16 355 6.4 14.5 0.00 0.00 0.00 85 1011.8
20260507163719 16 342 6.4 14.5 0.00 0.00 0.00 85 1011.8
20260507163215 16 321 4.8 16.1 0.00 0.00 0.00 87 1011.8
20260507162714 15 5 4.8 14.5 0.00 0.00 0.00 88 1011.8
20260507162210 15 0 6.4 14.5 0.00 0.00 0.00 89 1011.8
20260507161713 15 355 6.4 12.9 0.00 0.00 0.00 89 1011.8
20260507161208 15 347 6.4 12.9 0.00 0.00 0.00 91 1011.8
20260507160703 15 344 6.4 12.9 0.00 0.00 0.00 92 1011.8
20260507160201 14 322 6.4 12.9 0.00 0.00 0.00 94 1011.8
20260507155700 13 331 6.4 16.1 0.00 0.00 0.00 95 1011.9
20260507155159 13 313 6.4 16.1 0.00 0.00 0.00 95 1011.8
20260507154654 13 331 6.4 14.5 0.00 0.00 0.00 95 1011.8
20260507154156 13 304 4.8 14.5 0.00 0.00 0.00 96 1011.7
20260507153655 13 313 6.4 12.9 0.00 0.00 0.00 96 1011.7
20260507153150 13 333 6.4 12.9 0.00 0.00 0.00 96 1011.7
20260507152652 13 333 4.8 12.9 0.00 0.00 0.00 96 1011.7
20260507151654 12 336 4.8 11.3 0.00 0.00 0.00 97 1011.7
20260507151149 12 325 4.8 11.3 0.00 0.00 0.00 96 1011.7
20260507150649 12 333 3.2 11.3 0.00 0.00 0.00 96 1011.7
20260507150147 12 339 4.8 14.5 0.00 0.00 0.00 96 1011.7
20260507145645 12 324 4.8 14.5 0.00 0.00 0.00 96 1011.7
20260507145146 12 313 4.8 12.9 0.00 0.00 0.00 96 1011.7
20260507144645 12 326 6.4 12.9 0.00 0.00 0.00 96 1011.7
20260507144146 12 317 4.8 12.9 0.00 0.00 0.00 96 1011.8
20260507143644 12 355 4.8 12.9 0.00 0.00 0.00 96 1011.8
20260507143138 11 335 6.4 12.9 0.00 0.00 0.00 96 1011.8
20260507142636 11 317 4.8 12.9 0.00 0.00 0.00 96 1011.6
20260507142143 11 326 3.2 9.7 0.00 0.00 0.00 96 1011.6
20260507141635 11 331 4.8 12.9 0.00 0.00 0.00 96 1011.6
20260507141135 11 331 4.8 12.9 0.00 0.00 0.00 96 1011.6
20260507140637 11 329 4.8 9.7 0.00 0.00 0.00 96 1011.6
20260507140136 11 329 3.2 9.7 0.00 0.00 0.00 96 1011.6
20260507135635 11 331 3.2 8.0 0.00 0.00 0.00 96 1011.4
20260507135131 11 331 4.8 8.0 0.00 0.00 0.00 95 1011.4
20260507134633 11 331 3.2 9.7 0.00 0.00 0.00 95 1011.4
20260507133625 11 331 3.2 9.7 0.00 0.00 0.00 95 1011.4
20260507133126 11 308 1.6 6.4 0.00 0.00 0.00 95 1011.4
20260507132626 11 344 1.6 6.4 0.00 0.00 0.00 95 1011.4
20260507131621 11 344 4.8 11.3 0.00 0.00 0.00 95 1011.4
20260507131120 11 344 3.2 11.3 0.00 0.00 0.00 95 1011.1
20260507130118 11 348 3.2 9.7 0.00 0.00 0.00 95 1011.1
20260507125616 11 348 3.2 9.7 0.00 0.00 0.00 95 1011.1
20260507125116 11 351 3.2 9.7 0.00 0.00 0.00 95 1011.1
20260507124615 11 355 3.2 9.7 0.00 0.00 0.00 95 1011.1
20260507124112 11 321 3.2 9.7 0.00 0.00 0.00 95 1011.2
20260507123609 11 320 3.2 9.7 0.00 0.00 0.00 95 1011.2
20260507123107 11 319 3.2 8.0 0.00 0.00 0.00 95 1011.2
20260507122605 11 319 3.2 8.0 0.00 0.00 0.00 95 1011.2
20260507122108 11 318 3.2 9.7 0.00 0.00 0.00 95 1011.2
20260507121102 11 319 1.6 6.4 0.00 0.00 0.00 95 1011.3
20260507120602 11 319 3.2 6.4 0.00 0.00 0.00 95 1011.3
20260507115602 11 318 0.0 3.2 0.00 0.00 0.00 94 1011.3
20260507115103 11 319 0.0 3.2 0.00 0.00 0.00 94 1011.3
20260507114601 11 319 1.6 4.8 0.00 0.00 0.00 95 1011.3
20260507114053 11 318 1.6 6.4 0.00 0.00 0.00 94 1011.4
20260507113550 11 319 1.6 6.4 0.00 0.00 0.00 95 1011.4
20260507113045 11 319 1.6 4.8 0.00 0.00 0.00 95 1011.4
20260507112540 11 319 1.6 4.8 0.00 0.00 0.00 94 1011.5
20260507111540 11 319 3.2 6.4 0.00 0.00 0.00 94 1011.5
20260507111036 11 319 3.2 6.4 0.00 0.00 0.00 94 1011.6
20260507110543 11 318 3.2 6.4 0.00 0.00 0.00 94 1011.6
20260507110037 11 318 3.2 8.0 0.00 0.00 0.00 94 1011.6
20260507105534 11 318 3.2 8.0 0.00 0.00 0.00 94 1011.6
20260507105034 11 318 3.2 9.7 0.00 0.00 0.00 94 1011.6
20260507104532 11 319 3.2 9.7 0.00 0.00 0.00 94 1011.6
20260507104029 11 309 1.6 6.4 0.00 0.00 0.00 94 1011.8
20260507103524 11 309 3.2 9.7 0.00 0.00 0.00 94 1011.8
20260507103027 11 309 3.2 9.7 0.00 0.00 0.00 94 1011.8
20260507102021 11 290 1.6 4.8 0.00 0.00 0.00 94 1012.1
20260507101521 11 290 1.6 8.0 0.00 0.00 0.00 94 1012.1
20260507101022 11 290 1.6 8.0 0.00 0.00 0.00 94 1012.0
20260507100019 11 315 0.0 3.2 0.00 0.00 0.00 93 1012.0
20260507094517 11 315 0.0 3.2 0.00 0.00 0.00 93 1012.0
20260507094015 11 315 0.0 3.2 0.00 0.00 0.00 93 1012.1
20260507093511 11 315 0.0 1.6 0.00 0.00 0.00 93 1012.1
20260507092513 12 315 0.0 4.8 0.00 0.00 0.00 93 1012.1
20260507092009 12 315 0.0 4.8 0.00 0.00 0.00 93 1012.1
20260507091007 12 315 3.2 8.0 0.00 0.00 0.00 93 1012.4
20260507090505 12 315 3.2 8.0 0.00 0.00 0.00 93 1012.4
20260507090005 12 320 3.2 6.4 0.00 0.00 0.00 93 1012.4
20260507085459 12 320 3.2 8.0 0.00 0.00 0.00 92 1012.6
20260507085005 12 320 3.2 8.0 0.00 0.00 0.00 92 1012.6
20260507083957 12 331 3.2 8.0 0.00 0.00 0.00 92 1012.6
20260507083449 12 333 1.6 4.8 0.00 0.00 0.00 92 1012.6
20260507082445 12 333 1.6 8.0 0.00 0.00 0.00 92 1012.7
20260507081943 12 333 3.2 8.0 0.00 0.00 0.00 92 1012.7
20260507081438 12 333 3.2 9.7 0.00 0.00 0.00 91 1012.7
20260507080940 13 333 3.2 9.7 0.00 0.00 0.00 91 1012.9
20260507080437 13 336 1.6 4.8 0.00 0.00 0.00 91 1012.9
20260507075935 13 336 1.6 4.8 0.00 0.00 0.00 91 1012.9
20260507075430 13 336 0.0 3.2 0.00 0.00 0.00 91 1013.1
20260507074927 13 336 0.0 3.2 0.00 0.00 0.00 91 1013.1
20260507074427 13 336 1.6 4.8 0.00 0.00 0.00 91 1013.1
20260507073927 13 336 1.6 4.8 0.00 0.00 0.00 91 1013.1
20260507073422 13 336 1.6 4.8 0.00 0.00 0.00 91 1013.1
20260507072922 13 336 1.6 6.4 0.00 0.00 0.00 91 1013.1
20260507072422 13 336 1.6 6.4 0.00 0.00 0.00 91 1013.1
20260507070916 13 336 3.2 6.4 0.00 0.00 0.00 91 1013.1
20260507070423 13 336 3.2 6.4 0.00 0.00 0.00 91 1013.1
20260507065916 13 336 1.6 6.4 0.00 0.00 0.00 91 1013.1
20260507065410 13 336 1.6 6.4 0.00 0.00 0.00 91 1013.1
20260507064905 13 336 3.2 6.4 0.00 0.00 0.00 91 1013.1
20260507064406 13 336 3.2 6.4 0.00 0.00 0.00 90 1013.1
20260507063905 13 336 1.6 6.4 0.00 0.00 0.00 90 1013.2
20260507063405 13 336 3.2 8.0 0.00 0.00 0.00 90 1013.2
20260507062906 13 336 3.2 8.0 0.00 0.00 0.00 90 1013.2
20260507061904 13 336 3.2 9.7 0.00 0.00 0.00 90 1013.2
20260507061401 13 336 3.2 9.7 0.00 0.00 0.00 90 1013.2
20260507060858 13 336 3.2 9.7 0.00 0.00 0.00 90 1013.2
20260507060352 13 337 3.2 9.7 0.00 0.00 0.00 90 1013.2
20260507055850 13 336 1.6 6.4 0.00 0.00 0.00 90 1013.3
20260507055350 13 336 3.2 9.7 0.00 0.00 0.00 90 1013.3
20260507054850 13 336 3.2 9.7 0.00 0.00 0.00 89 1013.3
20260507054350 13 336 3.2 8.0 0.00 0.00 0.00 89 1013.4
20260507053848 13 335 3.2 8.0 0.00 0.00 0.00 89 1013.4
20260507052849 13 336 1.6 8.0 0.00 0.00 0.00 89 1013.2
20260507052344 13 336 3.2 12.9 0.00 0.00 0.00 89 1013.2
20260507051836 13 334 3.2 12.9 0.00 0.00 0.00 89 1013.2
20260507050833 13 335 3.2 9.7 0.00 0.00 0.00 89 1013.2
20260507050329 13 333 3.2 9.7 0.00 0.00 0.00 89 1013.2
20260507045828 13 333 3.2 9.7 0.00 0.00 0.00 89 1013.2
20260507044819 13 320 4.8 11.3 0.00 0.00 0.00 89 1013.2
20260507044319 13 335 3.2 9.7 0.00 0.00 0.00 89 1013.1
20260507043814 13 334 3.2 8.0 0.00 0.00 0.00 89 1013.1
20260507043312 13 334 3.2 8.0 0.00 0.00 0.00 88 1013.1
20260507042813 13 335 3.2 8.0 0.00 0.00 0.00 88 1013.1
20260507042311 13 335 3.2 6.4 0.00 0.00 0.00 88 1013.1
20260507041812 13 335 3.2 8.0 0.00 0.00 0.00 88 1013.1
20260507041312 13 335 1.6 8.0 0.00 0.00 0.00 87 1012.9
20260507040812 13 336 3.2 11.3 0.00 0.00 0.00 87 1012.9
20260507040313 13 336 3.2 11.3 0.00 0.00 0.00 87 1012.9
20260507035310 14 334 3.2 8.0 0.00 0.00 0.00 86 1012.9
20260507034807 14 335 3.2 11.3 0.00 0.00 0.00 86 1012.9
20260507033805 14 355 3.2 11.3 0.00 0.00 0.00 85 1012.7
20260507033304 14 327 1.6 11.3 0.00 0.00 0.00 85 1012.7
20260507032759 14 328 3.2 8.0 0.00 0.00 0.00 85 1012.7
20260507032258 14 328 3.2 11.3 0.00 0.00 0.00 84 1012.7
20260507031758 14 329 3.2 11.3 0.00 0.00 0.00 84 1012.7
20260507031257 14 336 3.2 9.7 0.00 0.00 0.00 84 1012.6
20260507030749 14 336 4.8 9.7 0.00 0.00 0.00 83 1012.6
20260507030249 15 329 4.8 11.3 0.00 0.00 0.00 83 1012.6
20260507025749 15 315 4.8 11.3 0.00 0.00 0.00 82 1012.4
20260507025252 15 329 3.2 9.7 0.00 0.00 0.00 81 1012.4
20260507024742 15 334 3.2 8.0 0.00 0.00 0.00 80 1012.4
20260507024241 15 311 3.2 8.0 0.00 0.00 0.00 79 1012.3
20260507023741 16 305 1.6 8.0 0.00 0.00 0.00 79 1012.3
20260507022229 16 309 4.8 12.9 0.00 0.00 0.00 76 1012.2
20260507021729 16 325 4.8 9.7 0.00 0.00 0.00 75 1012.2
20260507021228 16 323 4.8 9.7 0.00 0.00 0.00 74 1012.2
20260507020732 17 322 4.8 9.7 0.00 0.00 0.00 73 1012.2
20260507015725 17 322 4.8 12.9 0.00 0.00 0.00 70 1012.2
20260507015224 18 340 4.8 12.9 0.00 0.00 0.00 69 1012.2
20260507014722 18 279 3.2 12.9 0.00 0.00 0.00 68 1012.2
20260507014219 18 284 3.2 9.7 0.00 0.00 0.00 67 1012.3
20260507013717 18 316 6.4 12.9 0.00 0.00 0.00 67 1012.3
20260507013216 18 319 6.4 12.9 0.00 0.00 0.00 67 1012.3
20260507012212 18 288 4.8 12.9 0.00 0.00 0.00 65 1012.2
20260507011714 18 262 4.8 12.9 0.00 0.00 0.00 67 1012.2
20260507011212 18 273 6.4 17.7 0.00 0.00 0.00 67 1012.2
20260507010711 18 263 8.0 24.1 0.00 0.00 0.00 66 1012.2
20260507005708 18 255 8.0 17.7 0.00 0.00 0.00 69 1012.2
20260507005206 18 275 8.0 24.1 0.00 0.00 0.00 67 1012.2
20260507004701 18 304 8.0 24.1 0.00 0.00 0.00 68 1012.3
20260507004159 18 303 8.0 17.7 0.00 0.00 0.00 68 1012.3
20260507003658 18 272 9.7 20.9 0.00 0.00 0.00 68 1012.3
20260507002700 19 287 8.0 16.1 0.00 0.00 0.00 66 1012.1
20260507002156 19 11 8.0 17.7 0.00 0.00 0.00 65 1012.1
20260507001654 19 339 8.0 17.7 0.00 0.00 0.00 64 1012.1
20260507001155 20 323 6.4 16.1 0.00 0.00 0.00 63 1012.0
20260507000154 20 311 8.0 19.3 0.00 0.00 0.00 63 1012.0
20260506235651 20 308 8.0 17.7 0.00 0.00 0.00 63 1011.8
20260506235153 20 0 8.0 22.5 0.00 0.00 0.00 63 1011.8
20260506234650 20 355 8.0 22.5 0.00 0.00 0.00 62 1011.8
20260506234151 20 322 6.4 17.7 0.00 0.00 0.00 64 1011.8
20260506233649 20 318 8.0 17.7 0.00 0.00 0.00 64 1011.8
20260506233148 20 310 8.0 16.1 0.00 0.00 0.00 63 1011.8